Home > Weather > Chernobyl > Past weeks

Flag for Ukraine Past Weather in Chernobyl, Ukraine — Yesterday and Last 2 Weeks

Now
59 °F

Cool.


Feels Like: 59 °F
Forecast: 63 / 88 °F
Wind: 1 mph from South

Location: Hostomel

Current Time: Aug 28, 2016 at 5:35:19 AM

Latest Report: Aug 28, 2016 at 5:00 AM


Visibility: 6 mi

Pressure: 30.18 "Hg

Humidity: 88%

Dew Point: 55 °F

Location of ChernobylLocation

Past Weather in Chernobyl — Graph

°F

Chernobyl Temperature Yesterday

Maximum temperature yesterday: 84 °F (at 3:30 PM)
Minimum temperature yesterday: 54 °F (at 6:00 AM)
Average temperature yesterday: 70 °F

High & Low Weather Summary for the Past Weeks

 TemperatureHumidityPressure
High90 °F (Aug 23, 4:00 PM)100% (Aug 17, 5:00 AM)30.30 "Hg (Aug 17, 5:00 AM)
Low48 °F (Aug 17, 5:00 AM)32% (Aug 27, 4:30 PM)29.86 "Hg (Aug 17, 8:30 PM)
Average66 °F72%30.07 "Hg
* Reported Aug 13 4:00 AM — Aug 28 4:00 AM, Chernobyl, Weather by CustomWeather, © 2016

Note: Actual official high and low records may vary slightly from our data, if they occured in-between our weather recording intervals... More about our weather records

Advertising

Chernobyl Weather History for the Previous 24 Hours

Scroll right to see more
 ConditionsComfort  
Time TempWeatherWind HumidityBarometerVisibility
4:00 AM
Sun, Aug 28
61 °FCool.1 mph83%30.18 "Hg6 mi
3:30 AM63 °FMild.3 mph77%30.18 "Hg5 mi
3:00 AM61 °FCool.1 mph83%30.18 "Hg5 mi
2:30 AM61 °FCool.3 mph83%30.18 "Hg5 mi
2:00 AM63 °FMild.3 mph77%30.18 "Hg5 mi
1:30 AM63 °FMild.3 mph77%30.18 "Hg6 mi
1:00 AM64 °FMild.3 mph73%30.18 "Hg6 mi
12:30 AM63 °FMild.1 mph77%30.18 "Hg5 mi
12:00 AM63 °FMild.3 mph77%30.18 "Hg4 mi
11:30 PM
Sat, Aug 27
64 °FMild.3 mph73%30.18 "Hg4 mi
11:00 PM66 °FMild.1 mph68%30.18 "Hg4 mi
10:30 PM64 °FMild.1 mph73%30.18 "Hg2 mi
10:00 PM70 °FMild.1 mph60%30.18 "Hg3 mi
9:30 PM72 °FMild.1 mph53%30.18 "Hg1 mi
9:00 PM72 °FMild.3 mph57%30.18 "Hg5 mi
8:30 PM75 °FMild.3 mph47%30.18 "HgN/A
8:00 PM77 °FWarm.1 mph44%30.18 "HgN/A
7:30 PM79 °FWarm.1 mph42%30.18 "HgN/A
7:00 PM81 °FPleasantly warm.3 mph37%30.18 "HgN/A
6:30 PM81 °FPleasantly warm.3 mph37%30.18 "HgN/A
6:00 PM82 °FPleasantly warm.3 mph35%30.18 "HgN/A
5:30 PM82 °FPleasantly warm.3 mph37%30.21 "HgN/A
5:00 PM84 °FPleasantly warm.3 mph33%30.21 "HgN/A
4:30 PM82 °FPleasantly warm.6 mph32%30.21 "HgN/A
4:00 PM82 °FPleasantly warm.3 mph35%30.21 "HgN/A
3:30 PM84 °FPleasantly warm.1 mph33%30.24 "HgN/A
3:00 PM82 °FPleasantly warm.3 mph37%30.24 "HgN/A
2:30 PM81 °FPleasantly warm.3 mph37%30.24 "HgN/A
2:00 PM81 °FWarm.6 mph42%30.24 "HgN/A
1:30 PM81 °FWarm.3 mph42%30.27 "HgN/A
1:00 PM79 °FWarm.1 mph45%30.27 "HgN/A
12:30 PM79 °FWarm.3 mph45%30.27 "HgN/A
12:00 PM79 °FWarm.3 mph45%30.27 "Hg6 mi
11:30 AM77 °FWarm.1 mph44%30.27 "HgN/A
11:00 AM77 °FWarm.1 mph44%30.27 "HgN/A
10:30 AM73 °FMild.1 mph50%30.30 "Hg6 mi
10:00 AM73 °FMild.1 mph50%30.30 "HgN/A
9:30 AM72 °FMild.1 mph53%30.27 "HgN/A
9:00 AM68 °FMild.1 mph60%30.27 "HgN/A
8:30 AM66 °FMild.3 mph64%30.27 "HgN/A
8:00 AM63 °FMild.1 mph73%30.30 "HgN/A
7:30 AM59 °FCool.1 mph82%30.27 "HgN/A
7:00 AM55 °FCool.1 mph88%30.27 "HgN/A
6:30 AM54 °FCool.No wind94%30.27 "HgN/A
6:00 AM54 °FCool.No wind94%30.27 "Hg6 mi
5:30 AM55 °FCool.No wind82%30.27 "HgN/A
5:00 AM55 °FCool.No wind88%30.27 "HgN/A
Weather by CustomWeather, © 2016

See weather overviewHow to use our weather pages